GMT,Max TemperatureF,Mean TemperatureF,Min TemperatureF,Max Dew PointF,MeanDew PointF,Min DewpointF,Max Humidity, Mean Humidity, Min Humidity, Max Sea Level PressureIn, Mean Sea Level PressureIn, Min Sea Level PressureIn, Max VisibilityMiles, Mean VisibilityMiles, Min VisibilityMiles, Max Wind SpeedMPH, Mean Wind SpeedMPH, Max Gust SpeedMPH,PrecipitationIn, CloudCover, Events, WindDirDegrees
2012-11-1,47,42,37,43,39,34,100,86,71,29.13,28.92,28.80,16,7,4,20,8,,0.03,4,Rain,221
2012-11-2,48,40,33,41,37,34,100,85,61,29.39,29.27,29.12,19,8,6,15,11,,0.00,3,Rain,209
2012-11-3,49,40,32,39,36,30,100,85,61,29.52,29.41,29.30,17,8,6,16,8,,0.01,4,,198
2012-11-4,41,35,29,39,36,28,98,91,82,29.48,29.35,29.15,7,6,3,16,8,,0.31,6,Rain,62
2012-11-5,48,38,28,39,34,27,100,89,58,30.05,29.75,29.47,19,5,0,13,3,,0.00,3,Fog,354
2012-11-6,49,36,24,45,37,24,100,86,63,30.23,30.14,30.04,16,7,4,13,5,,0.02,6,Rain,228
2012-11-7,50,40,31,44,40,30,100,84,64,30.29,30.23,30.15,19,8,4,14,6,,0.00,5,Fog-Rain,215
2012-11-8,53,50,46,46,43,40,93,80,54,30.15,30.07,30.01,19,8,6,13,8,,0.00,5,Rain,225
2012-11-9,51,46,42,48,42,38,94,81,65,30.01,29.77,29.53,19,9,6,14,9,,0.00,6,,183
2012-11-10,50,42,32,46,42,32,100,93,71,29.59,29.45,29.39,19,7,1,6,4,,0.02,6,Rain,202
2012-11-11,49,38,28,40,34,27,100,86,50,30.12,29.89,29.59,16,6,0,6,3,,0.08,3,Fog,160
2012-11-12,53,46,39,52,46,37,100,93,84,30.22,30.12,30.06,12,7,2,15,8,,0.12,7,Rain,183
2012-11-13,58,53,48,52,49,46,94,86,66,30.34,30.28,30.21,19,8,6,14,8,,0.00,6,Rain,187
2012-11-14,55,46,36,50,45,36,100,89,61,30.34,30.29,30.24,12,5,1,9,6,,0.00,4,Fog-Rain,115
2012-11-15,47,43,39,43,41,39,100,89,73,30.26,30.18,30.09,6,3,2,6,3,,0.00,6,,136
2012-11-16,50,46,42,49,44,39,100,94,84,30.06,29.92,29.71,3,2,1,12,6,,0.02,7,Rain,151
2012-11-17,54,42,31,52,45,30,100,89,73,29.90,29.75,29.65,19,6,2,15,8,,0.01,6,,264
2012-11-18,48,37,26,38,32,25,100,83,47,30.00,29.95,29.89,17,7,3,8,3,,0.01,4,,157
2012-11-19,51,44,37,50,42,33,100,83,65,29.92,29.80,29.74,16,8,2,23,13,,0.00,6,Rain,166
2012-11-20,55,52,50,54,51,48,100,93,86,29.79,29.73,29.68,9,5,2,25,17,36,0.12,8,Rain,168
2012-11-21,51,45,39,50,45,37,100,93,87,29.97,29.75,29.53,16,7,4,21,9,,0.35,7,Rain,165
2012-11-22,55,50,44,48,46,41,94,80,59,29.95,29.78,29.59,16,7,4,32,18,47,0.24,6,Rain,186
2012-11-23,47,40,33,43,39,32,100,93,79,30.02,29.87,29.68,16,7,0,10,7,,0.00,3,,180
2012-11-24,50,40,30,48,41,30,100,93,87,30.01,29.75,29.24,6,4,0,21,8,,0.20,6,Rain,87
2012-11-25,51,46,42,50,43,32,94,81,66,29.72,29.56,29.15,19,8,1,26,17,39,0.02,5,,207
2012-11-26,47,44,41,45,43,40,100,92,83,29.54,29.46,29.42,19,6,2,15,7,,0.24,6,Rain,297
2012-11-27,46,44,42,43,41,37,96,85,66,29.89,29.68,29.50,19,7,4,20,9,,0.04,7,Rain,343
2012-11-28,43,38,33,38,35,30,87,79,67,30.01,29.95,29.86,19,8,6,14,11,,0.00,6,Rain,341
2012-11-29,41,32,23,34,29,21,94,85,69,29.98,29.92,29.86,19,9,6,9,4,,0.00,2,,326
2012-11-30,39,30,21,34,29,19,100,92,79,29.98,29.88,29.83,11,5,1,4,1,,0.01,4,Fog,184